| time (UTC) | temp F | wind direction | speed MPH | gust MPH | rain 1hr in | rain 24hr in | rain mn in | humidity % | barometer mb |
| 20260510214519 | 68 | 13 | 4.0 | 6.0 | 0.00 | 0.00 | 0.00 | 63 | 1002.4 |
| 20260510213018 | 66 | 35 | 0.0 | 4.0 | 0.00 | 0.00 | 0.00 | 69 | 1002.4 |
| 20260510211518 | 68 | 126 | 0.0 | 3.0 | 0.00 | 0.00 | 0.00 | 66 | 1002.4 |
| 20260510210017 | 67 | 28 | 0.0 | 0.0 | 0.00 | 0.00 | 0.00 | 66 | 1002.4 |
| 20260510204517 | 67 | 19 | 0.0 | 4.0 | 0.00 | 0.00 | 0.00 | 66 | 1002.4 |
| 20260510203015 | 65 | 24 | 0.0 | 0.0 | 0.00 | 0.00 | 0.00 | 71 | 1002.4 |
| 20260510201515 | 66 | 24 | 0.0 | 6.0 | 0.00 | 0.00 | 0.00 | 68 | 1002.4 |
| 20260510200014 | 67 | 89 | 0.0 | 0.0 | 0.00 | 0.00 | 0.00 | 65 | 1002.4 |
| 20260510194512 | 69 | 103 | 0.0 | 7.0 | 0.00 | 0.00 | 0.00 | 62 | 1002.4 |
| 20260510193009 | 66 | 100 | 0.0 | 2.0 | 0.00 | 0.00 | 0.00 | 69 | 1002.4 |
| 20260510191509 | 65 | 98 | 0.0 | 1.0 | 0.00 | 0.00 | 0.00 | 70 | 1002.4 |
| 20260510190009 | 66 | 86 | 0.0 | 4.0 | 0.00 | 0.00 | 0.00 | 69 | 1002.4 |
| 20260510184507 | 67 | 194 | 2.0 | 5.0 | 0.00 | 0.00 | 0.00 | 64 | 1002.4 |
| 20260510183007 | 66 | 188 | 0.0 | 4.0 | 0.00 | 0.00 | 0.00 | 66 | 1002.4 |
| 20260510181505 | 66 | 240 | 0.0 | 6.0 | 0.00 | 0.00 | 0.00 | 65 | 1002.4 |
| 20260510180005 | 64 | 240 | 0.0 | 5.0 | 0.00 | 0.00 | 0.00 | 71 | 1002.4 |
| 20260510174505 | 65 | 93 | 1.0 | 6.0 | 0.00 | 0.00 | 0.00 | 71 | 1002.4 |
| 20260510173002 | 65 | 95 | 1.0 | 5.0 | 0.00 | 0.00 | 0.00 | 67 | 1002.4 |
| 20260510171607 | 64 | 155 | 2.0 | 6.0 | 0.00 | 0.00 | 0.00 | 68 | 1002.4 |
| 20260510170056 | 63 | 186 | 3.0 | 6.0 | 0.00 | 0.00 | 0.00 | 71 | 1002.4 |
| 20260510164600 | 61 | 31 | 1.0 | 5.0 | 0.00 | 0.00 | 0.00 | 74 | 1002.4 |
| 20260510163049 | 59 | 12 | 0.0 | 4.0 | 0.00 | 0.00 | 0.00 | 79 | 1002.4 |
| 20260510161549 | 59 | 12 | 0.0 | 1.0 | 0.00 | 0.00 | 0.00 | 81 | 1002.4 |
| 20260510160048 | 59 | 172 | 1.0 | 4.0 | 0.00 | 0.00 | 0.00 | 78 | 1002.4 |
| 20260510154548 | 57 | 201 | 2.0 | 5.0 | 0.00 | 0.00 | 0.00 | 80 | 1002.4 |
| 20260510153040 | 55 | 213 | 1.0 | 4.0 | 0.00 | 0.00 | 0.00 | 85 | 1002.4 |
| 20260510151542 | 53 | 263 | 0.0 | 3.0 | 0.00 | 0.00 | 0.00 | 91 | 1002.4 |
| 20260510150054 | 52 | 296 | 0.0 | 0.0 | 0.00 | 0.00 | 0.00 | 93 | 1002.4 |
| 20260510144538 | 52 | 296 | 0.0 | 0.0 | 0.00 | 0.00 | 0.00 | 93 | 1002.4 |
| 20260510143039 | 51 | 296 | 0.0 | 0.0 | 0.00 | 0.00 | 0.00 | 93 | 1002.4 |
| 20260510141540 | 50 | 296 | 0.0 | 0.0 | 0.00 | 0.00 | 0.00 | 93 | 1002.4 |
| 20260510140037 | 50 | 296 | 0.0 | 0.0 | 0.00 | 0.00 | 0.00 | 93 | 1002.4 |
| 20260510134537 | 49 | 296 | 0.0 | 0.0 | 0.00 | 0.00 | 0.00 | 93 | 1002.4 |
| 20260510133035 | 49 | 296 | 0.0 | 0.0 | 0.00 | 0.00 | 0.00 | 92 | 1002.4 |
| 20260510131535 | 49 | 296 | 0.0 | 0.0 | 0.00 | 0.00 | 0.00 | 92 | 1002.4 |
| 20260510130035 | 49 | 296 | 0.0 | 0.0 | 0.00 | 0.00 | 0.00 | 92 | 1002.4 |
| 20260510124534 | 49 | 296 | 0.0 | 0.0 | 0.00 | 0.00 | 0.00 | 92 | 1002.4 |
| 20260510123033 | 49 | 296 | 0.0 | 0.0 | 0.00 | 0.00 | 0.00 | 92 | 1002.4 |
| 20260510121532 | 49 | 296 | 0.0 | 0.0 | 0.00 | 0.00 | 0.00 | 91 | 1002.4 |
| 20260510120032 | 49 | 296 | 0.0 | 0.0 | 0.00 | 0.00 | 0.00 | 92 | 1002.4 |
| 20260510114530 | 49 | 296 | 0.0 | 0.0 | 0.00 | 0.00 | 0.00 | 91 | 1002.4 |
| 20260510113030 | 49 | 296 | 0.0 | 0.0 | 0.00 | 0.00 | 0.00 | 91 | 1002.4 |
| 20260510111533 | 50 | 296 | 0.0 | 0.0 | 0.00 | 0.00 | 0.00 | 90 | 1002.4 |
| 20260510110029 | 50 | 296 | 0.0 | 0.0 | 0.00 | 0.00 | 0.00 | 91 | 1002.4 |
| 20260510104525 | 50 | 296 | 0.0 | 0.0 | 0.00 | 0.00 | 0.00 | 89 | 1002.4 |
| 20260510103026 | 51 | 296 | 0.0 | 0.0 | 0.00 | 0.00 | 0.00 | 89 | 1002.4 |
| 20260510101524 | 52 | 296 | 0.0 | 0.0 | 0.00 | 0.00 | 0.00 | 88 | 1002.4 |
| 20260510100020 | 52 | 296 | 0.0 | 0.0 | 0.00 | 0.00 | 0.00 | 87 | 1002.4 |
| 20260510094534 | 53 | 296 | 0.0 | 0.0 | 0.00 | 0.00 | 0.00 | 84 | 1002.4 |
| 20260510093019 | 53 | 296 | 0.0 | 0.0 | 0.00 | 0.00 | 0.00 | 86 | 1002.4 |
| 20260510091516 | 53 | 300 | 0.0 | 0.0 | 0.00 | 0.00 | 0.00 | 86 | 1002.4 |
| 20260510090016 | 53 | 300 | 0.0 | 0.0 | 0.00 | 0.00 | 0.00 | 86 | 1002.4 |
| 20260510084518 | 53 | 300 | 0.0 | 0.0 | 0.00 | 0.00 | 0.00 | 84 | 1002.4 |
| 20260510083011 | 55 | 296 | 0.0 | 0.0 | 0.00 | 0.00 | 0.00 | 83 | 1002.4 |
| 20260510081509 | 55 | 296 | 0.0 | 0.0 | 0.00 | 0.00 | 0.00 | 83 | 1002.4 |
| 20260510080021 | 55 | 296 | 0.0 | 0.0 | 0.00 | 0.00 | 0.00 | 83 | 1002.4 |
| 20260510074508 | 55 | 296 | 0.0 | 0.0 | 0.00 | 0.00 | 0.00 | 85 | 1002.4 |
| 20260510073017 | 55 | 296 | 0.0 | 0.0 | 0.00 | 0.00 | 0.00 | 85 | 1002.4 |
| 20260510071506 | 55 | 296 | 0.0 | 0.0 | 0.00 | 0.00 | 0.00 | 84 | 1002.4 |
| 20260510070006 | 55 | 296 | 0.0 | 0.0 | 0.00 | 0.00 | 0.00 | 83 | 1002.4 |
| 20260510064503 | 56 | 296 | 0.0 | 0.0 | 0.00 | 0.00 | 0.00 | 82 | 1002.4 |
| 20260510063006 | 57 | 282 | 0.0 | 0.0 | 0.00 | 0.00 | 0.00 | 78 | 1002.4 |
| 20260510061507 | 60 | 267 | 0.0 | 0.0 | 0.00 | 0.00 | 0.00 | 74 | 1002.4 |
| 20260510060002 | 61 | 267 | 0.0 | 0.0 | 0.00 | 0.00 | 0.00 | 71 | 1002.4 |
| 20260510054502 | 63 | 267 | 0.0 | 0.0 | 0.00 | 0.00 | 0.00 | 68 | 1002.4 |
| 20260510053001 | 63 | 267 | 0.0 | 0.0 | 0.00 | 0.00 | 0.00 | 67 | 1002.4 |
| 20260510051501 | 62 | 267 | 0.0 | 0.0 | 0.00 | 0.00 | 0.00 | 69 | 1002.4 |
| 20260510050001 | 63 | 267 | 0.0 | 0.0 | 0.00 | 0.00 | 0.00 | 69 | 1002.4 |
| 20260510044618 | 64 | 267 | 0.0 | 0.0 | 0.00 | 0.00 | 0.00 | 66 | 1002.4 |
| 20260510043100 | 65 | 267 | 0.0 | 0.0 | 0.00 | 0.00 | 0.00 | 64 | 1002.4 |
| 20260510041559 | 65 | 267 | 0.0 | 0.0 | 0.00 | 0.00 | 0.00 | 63 | 1002.4 |
| 20260510040059 | 67 | 267 | 0.0 | 0.0 | 0.00 | 0.00 | 0.00 | 62 | 1002.4 |
| 20260510034558 | 68 | 267 | 0.0 | 0.0 | 0.00 | 0.00 | 0.00 | 60 | 1002.4 |
| 20260510033109 | 70 | 267 | 0.0 | 0.0 | 0.00 | 0.00 | 0.00 | 57 | 1002.4 |
| 20260510031558 | 71 | 267 | 0.0 | 0.0 | 0.00 | 0.00 | 0.00 | 55 | 1002.4 |
| 20260510030105 | 72 | 267 | 0.0 | 4.0 | 0.00 | 0.00 | 0.00 | 52 | 1002.4 |
| 20260510024557 | 73 | 301 | 0.0 | 0.0 | 0.00 | 0.00 | 0.00 | 48 | 1002.4 |
| 20260510023055 | 73 | 19 | 0.0 | 0.0 | 0.00 | 0.00 | 0.00 | 47 | 1002.4 |
| 20260510021600 | 73 | 19 | 0.0 | 0.0 | 0.00 | 0.00 | 0.00 | 50 | 1002.4 |
| 20260510020056 | 73 | 19 | 0.0 | 0.0 | 0.00 | 0.00 | 0.00 | 47 | 1002.4 |
| 20260510014556 | 73 | 19 | 0.0 | 0.0 | 0.00 | 0.00 | 0.00 | 50 | 1002.4 |
| 20260510013054 | 73 | 19 | 0.0 | 0.0 | 0.00 | 0.00 | 0.00 | 48 | 1002.4 |
| 20260510011554 | 73 | 19 | 0.0 | 0.0 | 0.00 | 0.00 | 0.00 | 50 | 1002.4 |
| 20260510010053 | 73 | 19 | 0.0 | 0.0 | 0.00 | 0.00 | 0.00 | 48 | 1002.4 |
| 20260510004553 | 74 | 19 | 0.0 | 3.0 | 0.00 | 0.00 | 0.00 | 45 | 1002.4 |
| 20260510003051 | 73 | 19 | 2.0 | 6.0 | 0.00 | 0.00 | 0.00 | 43 | 1002.4 |
| 20260510001552 | 73 | 14 | 3.0 | 6.0 | 0.00 | 0.00 | 0.00 | 48 | 1002.4 |
| 20260510000052 | 74 | 15 | 4.0 | 6.0 | 0.00 | 0.00 | 0.00 | 49 | 1002.4 |
| 20260509234551 | 74 | 15 | 0.0 | 6.0 | 0.00 | 0.00 | 0.00 | 46 | 1002.4 |
| 20260509233048 | 74 | 15 | 3.0 | 7.0 | 0.00 | 0.00 | 0.00 | 51 | 1002.4 |
| 20260509231547 | 73 | 13 | 4.0 | 8.0 | 0.00 | 0.00 | 0.00 | 53 | 1002.4 |
| 20260509230047 | 73 | 13 | 4.0 | 8.0 | 0.00 | 0.00 | 0.00 | 50 | 1002.4 |
| 20260509224544 | 73 | 13 | 5.0 | 8.0 | 0.00 | 0.00 | 0.00 | 50 | 1002.4 |
| 20260509223042 | 73 | 13 | 4.0 | 8.0 | 0.00 | 0.00 | 0.00 | 55 | 1002.4 |
| 20260509221541 | 72 | 13 | 3.0 | 8.0 | 0.00 | 0.00 | 0.00 | 54 | 1002.4 |
| 20260509220040 | 72 | 9 | 5.0 | 7.0 | 0.00 | 0.00 | 0.00 | 54 | 1002.4 |